• MPC Preparation (Info)

  • MPEC 2010-S08 : 2010 SE

    The following Minor Planet Electronic Circular may be linked-to from your own Web pages, but must not otherwise be redistributed electronically.

    A form allowing access to any MPEC is at the bottom of this page.


    Read MPEC 2010-S07 Read MPEC 2010-S09


    M.P.E.C. 2010-S08                                Issued 2010 Sept. 17, 01:21 UT
    
         The Minor Planet Electronic Circulars contain information on unusual
             minor planets and routine data on comets.  They are published
       on behalf of Commission 20 of the International Astronomical Union by the
              Minor Planet Center, Smithsonian Astrophysical Observatory,
                              Cambridge, MA 02138, U.S.A.
    
                 Prepared using the Tamkin Foundation Computer Network
    
                                  MPC@CFA.HARVARD.EDU
           URL https://www.minorplanetcenter.org/iau/mpc.html  ISSN 1523-6714
    
                                        2010 SE
    
    Observations:
         K10S00E* C2010 09 16.43620 02 03 23.32 +30 52 32.8          18.0 V ES008703
         K10S00E  C2010 09 16.45123 02 03 58.89 +30 45 51.3          17.9 V ES008703
         K10S00E  C2010 09 16.45877 02 04 16.78 +30 42 28.1          17.8 V ES008703
         K10S00E  C2010 09 16.50104 02 05 58.52 +30 23 04.3          17.9 V ES008703
         K10S00E  C2010 09 16.50134 02 05 59.24 +30 22 56.3          17.6 V ES008703
         K10S00E  C2010 09 16.50199 02 06 00.79 +30 22 37.6          17.7 V ES008703
         K10S00E  C2010 09 16.50971 02 06 19.62 +30 19 01.2          17.7 V ES008703
         K10S00E  C2010 09 16.50998 02 06 20.37 +30 18 53.8          17.7 V ES008703
         K10S00E  C2010 09 16.51027 02 06 21.02 +30 18 45.1          18.1 V ES008703
         K10S00E  C2010 09 16.51403 02 06 30.28 +30 16 57.2          18.0 V ES008703
         K10S00E  C2010 09 16.51433 02 06 30.99 +30 16 49.0          18.1 V ES008703
         K10S00E  C2010 09 16.51465 02 06 31.77 +30 16 42.3          17.4 V ES008703
         K10S00E  C2010 09 16.51495 02 06 32.51 +30 16 32.5          16.9 V ES008703
         K10S00E KC2010 09 16.93300702 26 28.88 +26 32 16.6                 ES008J95
         K10S00E KC2010 09 16.93501202 26 34.84 +26 31 05.2                 ES008J95
         K10S00E KC2010 09 16.93702202 26 40.75 +26 29 53.8          18.1 R ES008J95
    
    Observer details:
    703 Catalina Sky Survey.  Observer A. R. Gibbs.  Measurers J. D. Ahern,
        E. C. Beshore, A. Boattini, G. J. Garradd, A. R. Gibbs, A. D. Grauer,
        R. E. Hill, R. A. Kowalski, S. M. Larson, R. H. McNaught.  0.68-m Schmidt
        + CCD.
    J95 Great Shefford.  Observer P. Birtwhistle.  0.40-m f/6.0 Schmidt-Cassegrain
        + CCD.
    
    Orbital elements:
    2010 SE                                                  Earth MOID = 0.0083 AU
    Epoch 2010 July 23.0 TT = JDT 2455400.5                 MPC
    M 240.81590              (2000.0)            P               Q
    n   0.91768475     Peri.  280.50691     -0.10597110     -0.99396606
    a   1.0487542      Node   175.29094     +0.99251334     -0.10746919
    e   0.2880609      Incl.   20.17377     +0.06072386     +0.02195074
    P   1.07           H   24.1           G   0.15           U   8
    Residuals in seconds of arc
    100916 703  0.2-  0.0     100916 703  0.6-  0.5+    100916 703  0.0   0.1-
    100916 703  0.3+  0.1-    100916 703  0.5+  0.7+    100916 J95  0.3-  0.1-
    100916 703  0.0   0.0     100916 703  0.2-  0.2+    100916 J95  0.3+  0.1-
    100916 703  0.2+  0.1-    100916 703  0.4+  1.4-    100916 J95  0.0   0.2+
    100916 703  0.0   0.3+    100916 703  0.0   1.1-
    100916 703  0.4-  0.2-    100916 703  0.0   1.2+
    
    Ephemeris:
    2010 SE                  a,e,i = 1.05, 0.29, 20                  q = 0.7466
    Date    TT    R. A. (2000) Decl.     Delta      r     Elong.  Phase     V
    2010 09 11    00 17.29   +43 36.7    0.0623   1.048   129.7    47.7    20.0
    2010 09 12    00 26.85   +42 54.8    0.0548   1.043   130.3    47.4    19.7
    2010 09 13    00 39.03   +41 53.7    0.0474   1.038   131.0    47.0    19.3
    2010 09 14    00 54.99   +40 21.2    0.0401   1.033   131.6    46.7    19.0
    2010 09 15    01 16.53   +37 53.3    0.0330   1.028   132.1    46.5    18.5
    2010 09 16    01 46.59   +33 40.3    0.0263   1.023   131.9    47.0    18.0
    2010 09 17    02 29.52   +25 55.7    0.0203   1.018   129.7    49.4    17.5
    2010 09 18    03 30.14   +11 31.5    0.0159   1.013   121.5    57.8    17.2
    2010 09 19    04 47.98   -10 02.0    0.0145   1.008   104.2    75.0    17.5
    2010 09 20    06 09.51   -28 57.9    0.0170   1.003    86.0    93.1    18.6
    2010 09 21    07 17.42   -39 12.7    0.0220   0.998    74.2   104.6    19.7
    2010 09 22    08 06.69   -43 54.4    0.0283   0.993    67.4   111.1    20.6
    2010 09 23    08 41.16   -46 05.1    0.0351   0.988    63.3   114.9    21.3
    2010 09 24    09 05.66   -47 09.0    0.0423   0.983    60.6   117.3    21.8
    2010 09 25    09 23.63   -47 41.2    0.0495   0.978    58.7   118.8    22.3
    2010 09 26    09 37.26   -47 57.4    0.0570   0.973    57.3   119.9    22.7
    
    Timothy B. Spahr             (C) Copyright 2010 MPC           M.P.E.C. 2010-S08
    

    Read MPEC 2010-S07 Read MPEC 2010-S09


    MPEC number:

    Enter an MPEC number in one of the following forms:

    • 1997-B01 (the full form)
    • J97B01 (the packed version of the full form)
    • B01 (the abbreviated form)